owner,sensor,date,latitude,longitude,vertical_datum,mass_concentration_of_oxygen_in_sea_water,qcFlag 
TCOON,ioos:station:TCOON:171:1,2019-11-01T00:30:00Z,27.4847,-97.3181,1.0,8.21,11111222 
TCOON,ioos:station:TCOON:171:1,2019-11-01T01:30:00Z,27.4847,-97.3181,1.0,7.96,11111222 
TCOON,ioos:station:TCOON:171:1,2019-11-01T02:30:00Z,27.4847,-97.3181,1.0,7.61,11111222 
TCOON,ioos:station:TCOON:171:1,2019-11-01T03:30:00Z,27.4847,-97.3181,1.0,7.45,11111222 
TCOON,ioos:station:TCOON:171:1,2019-11-01T04:30:00Z,27.4847,-97.3181,1.0,7.75,11111222 
TCOON,ioos:station:TCOON:171:1,2019-11-01T05:30:00Z,27.4847,-97.3181,1.0,7.73,11111222 
TCOON,ioos:station:TCOON:171:1,2019-11-01T06:30:00Z,27.4847,-97.3181,1.0,7.48,11111222 
TCOON,ioos:station:TCOON:171:1,2019-11-01T07:30:00Z,27.4847,-97.3181,1.0,7.32,11111222 
TCOON,ioos:station:TCOON:171:1,2019-11-01T08:30:00Z,27.4847,-97.3181,1.0,7.5,11111222 
TCOON,ioos:station:TCOON:171:1,2019-11-01T09:30:00Z,27.4847,-97.3181,1.0,7.33,11111222 
TCOON,ioos:station:TCOON:171:1,2019-11-01T10:30:00Z,27.4847,-97.3181,1.0,7.29,11111222 
TCOON,ioos:station:TCOON:171:1,2019-11-01T11:30:00Z,27.4847,-97.3181,1.0,7.52,11111222 
TCOON,ioos:station:TCOON:171:1,2019-11-01T12:30:00Z,27.4847,-97.3181,1.0,7.42,11111222 
TCOON,ioos:station:TCOON:171:1,2019-11-01T13:30:00Z,27.4847,-97.3181,1.0,7.64,11111222 
TCOON,ioos:station:TCOON:171:1,2019-11-01T14:30:00Z,27.4847,-97.3181,1.0,8.06,11111222 
TCOON,ioos:station:TCOON:171:1,2019-11-01T15:30:00Z,27.4847,-97.3181,1.0,8.29,11111222 
TCOON,ioos:station:TCOON:171:1,2019-11-01T16:30:00Z,27.4847,-97.3181,1.0,9.0,11111222 
TCOON,ioos:station:TCOON:171:1,2019-11-01T17:30:00Z,27.4847,-97.3181,1.0,9.59,11111222 
TCOON,ioos:station:TCOON:171:1,2019-11-01T18:30:00Z,27.4847,-97.3181,1.0,9.99,11111222 
TCOON,ioos:station:TCOON:171:1,2019-11-01T19:30:00Z,27.4847,-97.3181,1.0,10.38,11133222 
TCOON,ioos:station:TCOON:171:1,2019-11-01T20:30:00Z,27.4847,-97.3181,1.0,10.65,11133222 
TCOON,ioos:station:TCOON:171:1,2019-11-01T21:30:00Z,27.4847,-97.3181,1.0,11.02,11133222 
TCOON,ioos:station:TCOON:171:1,2019-11-01T22:30:00Z,27.4847,-97.3181,1.0,13.88,11133222 
TCOON,ioos:station:TCOON:171:1,2019-11-01T23:30:00Z,27.4847,-97.3181,1.0,12.17,11133222 
TCOON,ioos:station:TCOON:171:1,2019-11-02T00:30:00Z,27.4847,-97.3181,1.0,11.06,11133222 
TCOON,ioos:station:TCOON:171:1,2019-11-02T01:30:00Z,27.4847,-97.3181,1.0,10.08,11133222 
TCOON,ioos:station:TCOON:171:1,2019-11-02T02:30:00Z,27.4847,-97.3181,1.0,9.28,11111222 
TCOON,ioos:station:TCOON:171:1,2019-11-02T03:30:00Z,27.4847,-97.3181,1.0,9.9,11111222 
TCOON,ioos:station:TCOON:171:1,2019-11-02T04:30:00Z,27.4847,-97.3181,1.0,8.59,11111222 
TCOON,ioos:station:TCOON:171:1,2019-11-02T05:30:00Z,27.4847,-97.3181,1.0,8.06,11111222 
TCOON,ioos:station:TCOON:171:1,2019-11-02T07:30:00Z,27.4847,-97.3181,1.0,8.3,11111222 
TCOON,ioos:station:TCOON:171:1,2019-11-02T08:30:00Z,27.4847,-97.3181,1.0,7.98,11111222 
TCOON,ioos:station:TCOON:171:1,2019-11-02T09:30:00Z,27.4847,-97.3181,1.0,8.14,11111222 
TCOON,ioos:station:TCOON:171:1,2019-11-02T10:30:00Z,27.4847,-97.3181,1.0,7.94,11111222 
TCOON,ioos:station:TCOON:171:1,2019-11-02T11:30:00Z,27.4847,-97.3181,1.0,7.95,11111222 
TCOON,ioos:station:TCOON:171:1,2019-11-02T12:30:00Z,27.4847,-97.3181,1.0,7.79,11111222 
TCOON,ioos:station:TCOON:171:1,2019-11-02T13:30:00Z,27.4847,-97.3181,1.0,7.78,11111222 
TCOON,ioos:station:TCOON:171:1,2019-11-02T14:30:00Z,27.4847,-97.3181,1.0,8.12,11111222 
TCOON,ioos:station:TCOON:171:1,2019-11-02T15:30:00Z,27.4847,-97.3181,1.0,8.81,11111222 
TCOON,ioos:station:TCOON:171:1,2019-11-02T16:30:00Z,27.4847,-97.3181,1.0,9.13,11111222 
TCOON,ioos:station:TCOON:171:1,2019-11-02T17:30:00Z,27.4847,-97.3181,1.0,9.62,11111222 
TCOON,ioos:station:TCOON:171:1,2019-11-02T18:30:00Z,27.4847,-97.3181,1.0,10.21,11133222 
TCOON,ioos:station:TCOON:171:1,2019-11-02T19:30:00Z,27.4847,-97.3181,1.0,10.33,11133222 
TCOON,ioos:station:TCOON:171:1,2019-11-02T20:30:00Z,27.4847,-97.3181,1.0,10.46,11133222 
TCOON,ioos:station:TCOON:171:1,2019-11-02T21:30:00Z,27.4847,-97.3181,1.0,10.54,11133222 
TCOON,ioos:station:TCOON:171:1,2019-11-02T22:30:00Z,27.4847,-97.3181,1.0,10.53,11133222 
TCOON,ioos:station:TCOON:171:1,2019-11-02T23:30:00Z,27.4847,-97.3181,1.0,9.56,11111222 
TCOON,ioos:station:TCOON:171:1,2019-11-03T00:30:00Z,27.4847,-97.3181,1.0,9.54,11111222 
TCOON,ioos:station:TCOON:171:1,2019-11-03T01:30:00Z,27.4847,-97.3181,1.0,8.5,11111222 
TCOON,ioos:station:TCOON:171:1,2019-11-03T02:30:00Z,27.4847,-97.3181,1.0,8.0,11111222 
TCOON,ioos:station:TCOON:171:1,2019-11-03T03:30:00Z,27.4847,-97.3181,1.0,7.3,11111222 
TCOON,ioos:station:TCOON:171:1,2019-11-03T04:30:00Z,27.4847,-97.3181,1.0,6.35,11111222 
TCOON,ioos:station:TCOON:171:1,2019-11-03T05:30:00Z,27.4847,-97.3181,1.0,6.05,11111222 
TCOON,ioos:station:TCOON:171:1,2019-11-03T06:30:00Z,27.4847,-97.3181,1.0,5.48,11111222 
TCOON,ioos:station:TCOON:171:1,2019-11-03T07:30:00Z,27.4847,-97.3181,1.0,7.51,11111222 
TCOON,ioos:station:TCOON:171:1,2019-11-03T08:30:00Z,27.4847,-97.3181,1.0,7.91,11111222 
TCOON,ioos:station:TCOON:171:1,2019-11-03T09:30:00Z,27.4847,-97.3181,1.0,7.47,11111222 
TCOON,ioos:station:TCOON:171:1,2019-11-03T10:30:00Z,27.4847,-97.3181,1.0,7.62,11111222 
TCOON,ioos:station:TCOON:171:1,2019-11-03T11:30:00Z,27.4847,-97.3181,1.0,7.54,11111222 
TCOON,ioos:station:TCOON:171:1,2019-11-03T12:30:00Z,27.4847,-97.3181,1.0,7.98,11111222 
TCOON,ioos:station:TCOON:171:1,2019-11-03T13:30:00Z,27.4847,-97.3181,1.0,7.73,11111222 
TCOON,ioos:station:TCOON:171:1,2019-11-03T14:30:00Z,27.4847,-97.3181,1.0,7.91,11111222 
TCOON,ioos:station:TCOON:171:1,2019-11-03T15:30:00Z,27.4847,-97.3181,1.0,8.65,11111222 
TCOON,ioos:station:TCOON:171:1,2019-11-03T16:30:00Z,27.4847,-97.3181,1.0,9.21,11111222 
TCOON,ioos:station:TCOON:171:1,2019-11-03T17:30:00Z,27.4847,-97.3181,1.0,9.85,11111222 
TCOON,ioos:station:TCOON:171:1,2019-11-03T18:30:00Z,27.4847,-97.3181,1.0,10.48,11133222 
TCOON,ioos:station:TCOON:171:1,2019-11-03T19:30:00Z,27.4847,-97.3181,1.0,10.75,11133222 
TCOON,ioos:station:TCOON:171:1,2019-11-03T20:30:00Z,27.4847,-97.3181,1.0,13.11,11133222 
TCOON,ioos:station:TCOON:171:1,2019-11-03T21:30:00Z,27.4847,-97.3181,1.0,11.01,11133222 
TCOON,ioos:station:TCOON:171:1,2019-11-03T22:30:00Z,27.4847,-97.3181,1.0,10.95,11133222 
TCOON,ioos:station:TCOON:171:1,2019-11-03T23:30:00Z,27.4847,-97.3181,1.0,10.81,11133222 
TCOON,ioos:station:TCOON:171:1,2019-11-04T00:30:00Z,27.4847,-97.3181,1.0,10.63,11133222 
TCOON,ioos:station:TCOON:171:1,2019-11-04T01:30:00Z,27.4847,-97.3181,1.0,10.44,11133222 
TCOON,ioos:station:TCOON:171:1,2019-11-04T02:30:00Z,27.4847,-97.3181,1.0,9.99,11111222 
TCOON,ioos:station:TCOON:171:1,2019-11-04T03:30:00Z,27.4847,-97.3181,1.0,9.55,11111222 
TCOON,ioos:station:TCOON:171:1,2019-11-04T04:30:00Z,27.4847,-97.3181,1.0,8.97,11111222 
TCOON,ioos:station:TCOON:171:1,2019-11-04T05:30:00Z,27.4847,-97.3181,1.0,8.41,11111222 
TCOON,ioos:station:TCOON:171:1,2019-11-04T16:00:00Z,27.4847,-97.3181,1.0,8.28,11111222 
TCOON,ioos:station:TCOON:171:1,2019-11-04T16:30:00Z,27.4847,-97.3181,1.0,8.72,11111222 
TCOON,ioos:station:TCOON:171:1,2019-11-04T17:30:00Z,27.4847,-97.3181,1.0,9.76,11111222 
TCOON,ioos:station:TCOON:171:1,2019-11-04T18:30:00Z,27.4847,-97.3181,1.0,9.69,11111222 
TCOON,ioos:station:TCOON:171:1,2019-11-04T20:30:00Z,27.4847,-97.3181,1.0,10.87,11133222 
TCOON,ioos:station:TCOON:171:1,2019-11-04T21:30:00Z,27.4847,-97.3181,1.0,11.08,11133222 
TCOON,ioos:station:TCOON:171:1,2019-11-04T22:30:00Z,27.4847,-97.3181,1.0,10.18,11133222 
TCOON,ioos:station:TCOON:171:1,2019-11-04T23:30:00Z,27.4847,-97.3181,1.0,9.72,11111222 
TCOON,ioos:station:TCOON:171:1,2019-11-05T00:30:00Z,27.4847,-97.3181,1.0,9.63,11111222 
TCOON,ioos:station:TCOON:171:1,2019-11-05T01:30:00Z,27.4847,-97.3181,1.0,9.21,11111222 
TCOON,ioos:station:TCOON:171:1,2019-11-05T02:30:00Z,27.4847,-97.3181,1.0,8.55,11111222 
TCOON,ioos:station:TCOON:171:1,2019-11-05T03:30:00Z,27.4847,-97.3181,1.0,8.1,11111222 
TCOON,ioos:station:TCOON:171:1,2019-11-05T04:30:00Z,27.4847,-97.3181,1.0,7.93,11111222 
TCOON,ioos:station:TCOON:171:1,2019-11-05T05:30:00Z,27.4847,-97.3181,1.0,7.82,11111222 
TCOON,ioos:station:TCOON:171:1,2019-11-05T06:30:00Z,27.4847,-97.3181,1.0,7.64,11111222 
TCOON,ioos:station:TCOON:171:1,2019-11-05T07:30:00Z,27.4847,-97.3181,1.0,7.51,11111222 
TCOON,ioos:station:TCOON:171:1,2019-11-05T08:30:00Z,27.4847,-97.3181,1.0,7.12,11111222 
TCOON,ioos:station:TCOON:171:1,2019-11-05T09:30:00Z,27.4847,-97.3181,1.0,7.02,11111222 
TCOON,ioos:station:TCOON:171:1,2019-11-05T10:30:00Z,27.4847,-97.3181,1.0,6.61,11111222 
TCOON,ioos:station:TCOON:171:1,2019-11-05T11:30:00Z,27.4847,-97.3181,1.0,6.52,11111222 
TCOON,ioos:station:TCOON:171:1,2019-11-05T12:30:00Z,27.4847,-97.3181,1.0,6.14,11111222 
TCOON,ioos:station:TCOON:171:1,2019-11-05T13:30:00Z,27.4847,-97.3181,1.0,4.87,11111222 
TCOON,ioos:station:TCOON:171:1,2019-11-05T14:30:00Z,27.4847,-97.3181,1.0,6.68,11111222 
TCOON,ioos:station:TCOON:171:1,2019-11-05T15:30:00Z,27.4847,-97.3181,1.0,7.1,11111222 
TCOON,ioos:station:TCOON:171:1,2019-11-05T16:30:00Z,27.4847,-97.3181,1.0,9.02,11111222 
TCOON,ioos:station:TCOON:171:1,2019-11-05T17:30:00Z,27.4847,-97.3181,1.0,9.0,11111222 
TCOON,ioos:station:TCOON:171:1,2019-11-05T18:30:00Z,27.4847,-97.3181,1.0,9.29,11111222 
TCOON,ioos:station:TCOON:171:1,2019-11-05T19:30:00Z,27.4847,-97.3181,1.0,9.98,11111222 
TCOON,ioos:station:TCOON:171:1,2019-11-05T20:30:00Z,27.4847,-97.3181,1.0,10.53,11133222 
TCOON,ioos:station:TCOON:171:1,2019-11-05T21:30:00Z,27.4847,-97.3181,1.0,11.45,11133222 
TCOON,ioos:station:TCOON:171:1,2019-11-05T22:30:00Z,27.4847,-97.3181,1.0,12.1,11133222 
TCOON,ioos:station:TCOON:171:1,2019-11-05T23:30:00Z,27.4847,-97.3181,1.0,11.51,11133222 
TCOON,ioos:station:TCOON:171:1,2019-11-06T00:30:00Z,27.4847,-97.3181,1.0,10.07,11133222 
TCOON,ioos:station:TCOON:171:1,2019-11-06T01:30:00Z,27.4847,-97.3181,1.0,9.61,11111222 
TCOON,ioos:station:TCOON:171:1,2019-11-06T02:30:00Z,27.4847,-97.3181,1.0,9.04,11111222 
TCOON,ioos:station:TCOON:171:1,2019-11-06T03:30:00Z,27.4847,-97.3181,1.0,8.69,11111222 
TCOON,ioos:station:TCOON:171:1,2019-11-06T04:30:00Z,27.4847,-97.3181,1.0,9.42,11111222 
TCOON,ioos:station:TCOON:171:1,2019-11-06T05:30:00Z,27.4847,-97.3181,1.0,8.94,11111222 
TCOON,ioos:station:TCOON:171:1,2019-11-06T06:30:00Z,27.4847,-97.3181,1.0,8.35,11111222 
TCOON,ioos:station:TCOON:171:1,2019-11-06T07:30:00Z,27.4847,-97.3181,1.0,7.78,11111222 
TCOON,ioos:station:TCOON:171:1,2019-11-06T08:30:00Z,27.4847,-97.3181,1.0,7.76,11111222 
TCOON,ioos:station:TCOON:171:1,2019-11-06T09:30:00Z,27.4847,-97.3181,1.0,6.43,11111222 
TCOON,ioos:station:TCOON:171:1,2019-11-06T10:30:00Z,27.4847,-97.3181,1.0,6.98,11111222 
TCOON,ioos:station:TCOON:171:1,2019-11-06T11:30:00Z,27.4847,-97.3181,1.0,6.85,11111222 
TCOON,ioos:station:TCOON:171:1,2019-11-06T12:30:00Z,27.4847,-97.3181,1.0,7.01,11111222 
TCOON,ioos:station:TCOON:171:1,2019-11-06T13:30:00Z,27.4847,-97.3181,1.0,7.04,11111222 
TCOON,ioos:station:TCOON:171:1,2019-11-06T14:30:00Z,27.4847,-97.3181,1.0,7.25,11111222 
TCOON,ioos:station:TCOON:171:1,2019-11-06T15:30:00Z,27.4847,-97.3181,1.0,8.12,11111222 
TCOON,ioos:station:TCOON:171:1,2019-11-06T16:30:00Z,27.4847,-97.3181,1.0,8.93,11111222 
TCOON,ioos:station:TCOON:171:1,2019-11-06T17:30:00Z,27.4847,-97.3181,1.0,9.22,11111222 
TCOON,ioos:station:TCOON:171:1,2019-11-06T18:30:00Z,27.4847,-97.3181,1.0,9.39,11111222 
TCOON,ioos:station:TCOON:171:1,2019-11-06T19:30:00Z,27.4847,-97.3181,1.0,10.71,11133222 
TCOON,ioos:station:TCOON:171:1,2019-11-06T20:30:00Z,27.4847,-97.3181,1.0,11.6,11133222 
TCOON,ioos:station:TCOON:171:1,2019-11-06T21:30:00Z,27.4847,-97.3181,1.0,11.29,11133222 
TCOON,ioos:station:TCOON:171:1,2019-11-06T22:30:00Z,27.4847,-97.3181,1.0,10.84,11133222 
TCOON,ioos:station:TCOON:171:1,2019-11-06T23:30:00Z,27.4847,-97.3181,1.0,9.87,11111222 
TCOON,ioos:station:TCOON:171:1,2019-11-07T00:30:00Z,27.4847,-97.3181,1.0,8.99,11111222 
TCOON,ioos:station:TCOON:171:1,2019-11-07T01:30:00Z,27.4847,-97.3181,1.0,8.15,11111222 
TCOON,ioos:station:TCOON:171:1,2019-11-07T02:30:00Z,27.4847,-97.3181,1.0,8.78,11111222 
TCOON,ioos:station:TCOON:171:1,2019-11-07T03:30:00Z,27.4847,-97.3181,1.0,8.42,11111222 
TCOON,ioos:station:TCOON:171:1,2019-11-07T04:30:00Z,27.4847,-97.3181,1.0,8.04,11111222 
TCOON,ioos:station:TCOON:171:1,2019-11-07T05:30:00Z,27.4847,-97.3181,1.0,7.53,11111222 
TCOON,ioos:station:TCOON:171:1,2019-11-07T06:30:00Z,27.4847,-97.3181,1.0,6.99,11111222 
TCOON,ioos:station:TCOON:171:1,2019-11-07T07:30:00Z,27.4847,-97.3181,1.0,6.44,11111222 
TCOON,ioos:station:TCOON:171:1,2019-11-07T08:30:00Z,27.4847,-97.3181,1.0,6.37,11111222 
TCOON,ioos:station:TCOON:171:1,2019-11-07T09:30:00Z,27.4847,-97.3181,1.0,5.99,11111222 
TCOON,ioos:station:TCOON:171:1,2019-11-07T10:30:00Z,27.4847,-97.3181,1.0,6.14,11111222 
TCOON,ioos:station:TCOON:171:1,2019-11-07T11:30:00Z,27.4847,-97.3181,1.0,6.37,11111222 
TCOON,ioos:station:TCOON:171:1,2019-11-07T12:30:00Z,27.4847,-97.3181,1.0,5.87,11111222 
TCOON,ioos:station:TCOON:171:1,2019-11-07T13:30:00Z,27.4847,-97.3181,1.0,6.01,11111222 
TCOON,ioos:station:TCOON:171:1,2019-11-07T14:30:00Z,27.4847,-97.3181,1.0,5.88,11111222 
TCOON,ioos:station:TCOON:171:1,2019-11-07T15:30:00Z,27.4847,-97.3181,1.0,6.29,11111222 
TCOON,ioos:station:TCOON:171:1,2019-11-07T16:30:00Z,27.4847,-97.3181,1.0,6.71,11111222 
TCOON,ioos:station:TCOON:171:1,2019-11-07T17:30:00Z,27.4847,-97.3181,1.0,7.17,11111222 
TCOON,ioos:station:TCOON:171:1,2019-11-07T18:30:00Z,27.4847,-97.3181,1.0,8.01,11111222 
TCOON,ioos:station:TCOON:171:1,2019-11-07T19:30:00Z,27.4847,-97.3181,1.0,8.05,11111222 
TCOON,ioos:station:TCOON:171:1,2019-11-07T20:30:00Z,27.4847,-97.3181,1.0,8.7,11111222 
TCOON,ioos:station:TCOON:171:1,2019-11-07T21:30:00Z,27.4847,-97.3181,1.0,9.27,11111222 
TCOON,ioos:station:TCOON:171:1,2019-11-07T22:30:00Z,27.4847,-97.3181,1.0,8.82,11111222 
TCOON,ioos:station:TCOON:171:1,2019-11-07T23:30:00Z,27.4847,-97.3181,1.0,8.86,11111222 
TCOON,ioos:station:TCOON:171:1,2019-11-08T00:30:00Z,27.4847,-97.3181,1.0,7.56,11111222 
TCOON,ioos:station:TCOON:171:1,2019-11-08T01:30:00Z,27.4847,-97.3181,1.0,6.94,11111222 
TCOON,ioos:station:TCOON:171:1,2019-11-08T02:30:00Z,27.4847,-97.3181,1.0,6.67,11111222 
TCOON,ioos:station:TCOON:171:1,2019-11-08T03:30:00Z,27.4847,-97.3181,1.0,6.48,11111222 
TCOON,ioos:station:TCOON:171:1,2019-11-08T04:30:00Z,27.4847,-97.3181,1.0,6.43,11111222 
TCOON,ioos:station:TCOON:171:1,2019-11-08T05:30:00Z,27.4847,-97.3181,1.0,6.32,11111222 
TCOON,ioos:station:TCOON:171:1,2019-11-08T06:30:00Z,27.4847,-97.3181,1.0,6.26,11111222 
TCOON,ioos:station:TCOON:171:1,2019-11-08T07:30:00Z,27.4847,-97.3181,1.0,6.26,11111222 
TCOON,ioos:station:TCOON:171:1,2019-11-08T08:30:00Z,27.4847,-97.3181,1.0,6.32,11111222 
TCOON,ioos:station:TCOON:171:1,2019-11-08T09:30:00Z,27.4847,-97.3181,1.0,6.33,11111222 
TCOON,ioos:station:TCOON:171:1,2019-11-08T10:30:00Z,27.4847,-97.3181,1.0,6.36,11111222 
TCOON,ioos:station:TCOON:171:1,2019-11-08T11:30:00Z,27.4847,-97.3181,1.0,6.37,11111222 
TCOON,ioos:station:TCOON:171:1,2019-11-08T12:30:00Z,27.4847,-97.3181,1.0,6.37,11111222 
TCOON,ioos:station:TCOON:171:1,2019-11-08T13:30:00Z,27.4847,-97.3181,1.0,6.24,11111222 
TCOON,ioos:station:TCOON:171:1,2019-11-08T14:30:00Z,27.4847,-97.3181,1.0,6.26,11111222 
TCOON,ioos:station:TCOON:171:1,2019-11-08T15:30:00Z,27.4847,-97.3181,1.0,6.34,11111222 
TCOON,ioos:station:TCOON:171:1,2019-11-08T16:30:00Z,27.4847,-97.3181,1.0,6.46,11111222 
TCOON,ioos:station:TCOON:171:1,2019-11-08T17:30:00Z,27.4847,-97.3181,1.0,6.53,11111222 
TCOON,ioos:station:TCOON:171:1,2019-11-08T18:30:00Z,27.4847,-97.3181,1.0,6.66,11111222 
TCOON,ioos:station:TCOON:171:1,2019-11-08T19:30:00Z,27.4847,-97.3181,1.0,6.69,11111222 
TCOON,ioos:station:TCOON:171:1,2019-11-08T20:30:00Z,27.4847,-97.3181,1.0,6.75,11111222 
TCOON,ioos:station:TCOON:171:1,2019-11-08T21:30:00Z,27.4847,-97.3181,1.0,6.88,11111222 
TCOON,ioos:station:TCOON:171:1,2019-11-08T22:30:00Z,27.4847,-97.3181,1.0,6.91,11111222 
TCOON,ioos:station:TCOON:171:1,2019-11-08T23:30:00Z,27.4847,-97.3181,1.0,6.8,11111222 
TCOON,ioos:station:TCOON:171:1,2019-11-09T00:30:00Z,27.4847,-97.3181,1.0,6.68,11111222 
TCOON,ioos:station:TCOON:171:1,2019-11-09T01:30:00Z,27.4847,-97.3181,1.0,6.53,11111222 
TCOON,ioos:station:TCOON:171:1,2019-11-09T02:30:00Z,27.4847,-97.3181,1.0,6.53,11111222 
TCOON,ioos:station:TCOON:171:1,2019-11-09T03:30:00Z,27.4847,-97.3181,1.0,6.48,11111222 
TCOON,ioos:station:TCOON:171:1,2019-11-09T04:30:00Z,27.4847,-97.3181,1.0,6.47,11111222 
TCOON,ioos:station:TCOON:171:1,2019-11-09T05:30:00Z,27.4847,-97.3181,1.0,6.46,11111222 
TCOON,ioos:station:TCOON:171:1,2019-11-09T06:30:00Z,27.4847,-97.3181,1.0,6.74,11111222 
TCOON,ioos:station:TCOON:171:1,2019-11-09T07:30:00Z,27.4847,-97.3181,1.0,6.63,11111222 
TCOON,ioos:station:TCOON:171:1,2019-11-09T08:30:00Z,27.4847,-97.3181,1.0,6.75,11111222 
TCOON,ioos:station:TCOON:171:1,2019-11-09T09:30:00Z,27.4847,-97.3181,1.0,6.8,11111222 
TCOON,ioos:station:TCOON:171:1,2019-11-09T10:30:00Z,27.4847,-97.3181,1.0,6.97,11111222 
TCOON,ioos:station:TCOON:171:1,2019-11-09T11:30:00Z,27.4847,-97.3181,1.0,6.75,11111222 
TCOON,ioos:station:TCOON:171:1,2019-11-09T12:30:00Z,27.4847,-97.3181,1.0,6.63,11111222 
TCOON,ioos:station:TCOON:171:1,2019-11-09T13:30:00Z,27.4847,-97.3181,1.0,6.64,11111222 
TCOON,ioos:station:TCOON:171:1,2019-11-09T14:30:00Z,27.4847,-97.3181,1.0,6.73,11111222 
TCOON,ioos:station:TCOON:171:1,2019-11-09T15:30:00Z,27.4847,-97.3181,1.0,7.03,11111222 
TCOON,ioos:station:TCOON:171:1,2019-11-09T16:30:00Z,27.4847,-97.3181,1.0,7.71,11111222 
TCOON,ioos:station:TCOON:171:1,2019-11-09T17:30:00Z,27.4847,-97.3181,1.0,8.86,11111222 
TCOON,ioos:station:TCOON:171:1,2019-11-09T18:30:00Z,27.4847,-97.3181,1.0,9.07,11111222 
TCOON,ioos:station:TCOON:171:1,2019-11-09T19:30:00Z,27.4847,-97.3181,1.0,10.45,11133222 
TCOON,ioos:station:TCOON:171:1,2019-11-09T20:30:00Z,27.4847,-97.3181,1.0,11.15,11133222 
TCOON,ioos:station:TCOON:171:1,2019-11-09T21:30:00Z,27.4847,-97.3181,1.0,12.12,11133222 
TCOON,ioos:station:TCOON:171:1,2019-11-09T22:30:00Z,27.4847,-97.3181,1.0,12.39,11133222 
TCOON,ioos:station:TCOON:171:1,2019-11-09T23:30:00Z,27.4847,-97.3181,1.0,12.6,11133222 
TCOON,ioos:station:TCOON:171:1,2019-11-10T00:30:00Z,27.4847,-97.3181,1.0,11.64,11133222 
TCOON,ioos:station:TCOON:171:1,2019-11-10T01:30:00Z,27.4847,-97.3181,1.0,10.37,11133222 
TCOON,ioos:station:TCOON:171:1,2019-11-10T02:30:00Z,27.4847,-97.3181,1.0,7.96,11111222 
TCOON,ioos:station:TCOON:171:1,2019-11-10T03:30:00Z,27.4847,-97.3181,1.0,7.38,11111222 
TCOON,ioos:station:TCOON:171:1,2019-11-10T04:30:00Z,27.4847,-97.3181,1.0,7.13,11111222 
TCOON,ioos:station:TCOON:171:1,2019-11-10T05:30:00Z,27.4847,-97.3181,1.0,7.2,11111222 
TCOON,ioos:station:TCOON:171:1,2019-11-10T06:30:00Z,27.4847,-97.3181,1.0,6.89,11111222 
TCOON,ioos:station:TCOON:171:1,2019-11-10T07:30:00Z,27.4847,-97.3181,1.0,7.04,11111222 
TCOON,ioos:station:TCOON:171:1,2019-11-10T08:30:00Z,27.4847,-97.3181,1.0,6.99,11111222 
TCOON,ioos:station:TCOON:171:1,2019-11-10T09:30:00Z,27.4847,-97.3181,1.0,6.47,11111222 
TCOON,ioos:station:TCOON:171:1,2019-11-10T10:30:00Z,27.4847,-97.3181,1.0,6.63,11111222 
TCOON,ioos:station:TCOON:171:1,2019-11-10T11:30:00Z,27.4847,-97.3181,1.0,6.46,11111222 
TCOON,ioos:station:TCOON:171:1,2019-11-10T12:30:00Z,27.4847,-97.3181,1.0,6.51,11111222 
TCOON,ioos:station:TCOON:171:1,2019-11-10T13:30:00Z,27.4847,-97.3181,1.0,6.4,11111222 
TCOON,ioos:station:TCOON:171:1,2019-11-10T14:30:00Z,27.4847,-97.3181,1.0,6.68,11111222 
TCOON,ioos:station:TCOON:171:1,2019-11-10T15:30:00Z,27.4847,-97.3181,1.0,6.71,11111222 
TCOON,ioos:station:TCOON:171:1,2019-11-10T16:30:00Z,27.4847,-97.3181,1.0,7.91,11111222 
TCOON,ioos:station:TCOON:171:1,2019-11-10T17:30:00Z,27.4847,-97.3181,1.0,8.54,11111222 
TCOON,ioos:station:TCOON:171:1,2019-11-10T18:30:00Z,27.4847,-97.3181,1.0,10.43,11133222 
TCOON,ioos:station:TCOON:171:1,2019-11-10T19:30:00Z,27.4847,-97.3181,1.0,10.29,11133222 
TCOON,ioos:station:TCOON:171:1,2019-11-10T20:30:00Z,27.4847,-97.3181,1.0,11.3,11133222 
TCOON,ioos:station:TCOON:171:1,2019-11-10T21:30:00Z,27.4847,-97.3181,1.0,9.89,11111222 
TCOON,ioos:station:TCOON:171:1,2019-11-10T22:30:00Z,27.4847,-97.3181,1.0,11.34,11133222 
TCOON,ioos:station:TCOON:171:1,2019-11-10T23:30:00Z,27.4847,-97.3181,1.0,9.08,11111222 
TCOON,ioos:station:TCOON:171:1,2019-11-11T00:30:00Z,27.4847,-97.3181,1.0,8.55,11111222 
TCOON,ioos:station:TCOON:171:1,2019-11-11T01:30:00Z,27.4847,-97.3181,1.0,9.49,11111222 
TCOON,ioos:station:TCOON:171:1,2019-11-11T02:30:00Z,27.4847,-97.3181,1.0,8.35,11111222 
TCOON,ioos:station:TCOON:171:1,2019-11-11T03:30:00Z,27.4847,-97.3181,1.0,9.18,11111222 
TCOON,ioos:station:TCOON:171:1,2019-11-11T04:30:00Z,27.4847,-97.3181,1.0,8.08,11111222 
TCOON,ioos:station:TCOON:171:1,2019-11-11T05:30:00Z,27.4847,-97.3181,1.0,7.89,11111222 
TCOON,ioos:station:TCOON:171:1,2019-11-11T06:30:00Z,27.4847,-97.3181,1.0,7.68,11111222 
TCOON,ioos:station:TCOON:171:1,2019-11-11T07:30:00Z,27.4847,-97.3181,1.0,7.42,11111222 
TCOON,ioos:station:TCOON:171:1,2019-11-11T08:30:00Z,27.4847,-97.3181,1.0,7.44,11111222 
TCOON,ioos:station:TCOON:171:1,2019-11-11T09:30:00Z,27.4847,-97.3181,1.0,7.23,11111222 
TCOON,ioos:station:TCOON:171:1,2019-11-11T10:30:00Z,27.4847,-97.3181,1.0,6.93,11111222 
TCOON,ioos:station:TCOON:171:1,2019-11-11T11:30:00Z,27.4847,-97.3181,1.0,6.7,11111222 
TCOON,ioos:station:TCOON:171:1,2019-11-11T12:30:00Z,27.4847,-97.3181,1.0,6.64,11111222 
TCOON,ioos:station:TCOON:171:1,2019-11-11T13:30:00Z,27.4847,-97.3181,1.0,6.54,11111222 
TCOON,ioos:station:TCOON:171:1,2019-11-11T14:30:00Z,27.4847,-97.3181,1.0,6.4,11111222 
TCOON,ioos:station:TCOON:171:1,2019-11-11T15:30:00Z,27.4847,-97.3181,1.0,6.99,11111222 
TCOON,ioos:station:TCOON:171:1,2019-11-11T16:30:00Z,27.4847,-97.3181,1.0,7.28,11111222 
TCOON,ioos:station:TCOON:171:1,2019-11-11T17:30:00Z,27.4847,-97.3181,1.0,7.47,11111222 
TCOON,ioos:station:TCOON:171:1,2019-11-11T18:30:00Z,27.4847,-97.3181,1.0,8.18,11111222 
TCOON,ioos:station:TCOON:171:1,2019-11-11T19:30:00Z,27.4847,-97.3181,1.0,8.75,11111222 
TCOON,ioos:station:TCOON:171:1,2019-11-11T20:30:00Z,27.4847,-97.3181,1.0,9.1,11111222 
TCOON,ioos:station:TCOON:171:1,2019-11-11T21:30:00Z,27.4847,-97.3181,1.0,9.4,11111222 
TCOON,ioos:station:TCOON:171:1,2019-11-11T22:30:00Z,27.4847,-97.3181,1.0,8.82,11111222 
TCOON,ioos:station:TCOON:171:1,2019-11-11T23:30:00Z,27.4847,-97.3181,1.0,9.3,11111222 
TCOON,ioos:station:TCOON:171:1,2019-11-12T00:30:00Z,27.4847,-97.3181,1.0,8.39,11111222 
TCOON,ioos:station:TCOON:171:1,2019-11-12T01:30:00Z,27.4847,-97.3181,1.0,7.79,11111222 
TCOON,ioos:station:TCOON:171:1,2019-11-12T02:30:00Z,27.4847,-97.3181,1.0,7.29,11111222 
TCOON,ioos:station:TCOON:171:1,2019-11-12T03:30:00Z,27.4847,-97.3181,1.0,7.51,11111222 
TCOON,ioos:station:TCOON:171:1,2019-11-12T04:30:00Z,27.4847,-97.3181,1.0,7.31,11111222 
TCOON,ioos:station:TCOON:171:1,2019-11-12T05:30:00Z,27.4847,-97.3181,1.0,7.4,11111222 
TCOON,ioos:station:TCOON:171:1,2019-11-12T06:30:00Z,27.4847,-97.3181,1.0,7.29,11111222 
TCOON,ioos:station:TCOON:171:1,2019-11-12T07:30:00Z,27.4847,-97.3181,1.0,7.38,11111222 
TCOON,ioos:station:TCOON:171:1,2019-11-12T08:30:00Z,27.4847,-97.3181,1.0,7.48,11111222 
TCOON,ioos:station:TCOON:171:1,2019-11-12T09:30:00Z,27.4847,-97.3181,1.0,7.49,11111222 
TCOON,ioos:station:TCOON:171:1,2019-11-12T10:30:00Z,27.4847,-97.3181,1.0,7.61,11111222 
TCOON,ioos:station:TCOON:171:1,2019-11-12T11:30:00Z,27.4847,-97.3181,1.0,7.65,11111222 
TCOON,ioos:station:TCOON:171:1,2019-11-12T12:30:00Z,27.4847,-97.3181,1.0,7.95,11111222 
TCOON,ioos:station:TCOON:171:1,2019-11-12T13:30:00Z,27.4847,-97.3181,1.0,7.68,11111222 
TCOON,ioos:station:TCOON:171:1,2019-11-12T14:30:00Z,27.4847,-97.3181,1.0,7.73,11111222 
TCOON,ioos:station:TCOON:171:1,2019-11-12T15:30:00Z,27.4847,-97.3181,1.0,7.72,11111222 
TCOON,ioos:station:TCOON:171:1,2019-11-12T16:30:00Z,27.4847,-97.3181,1.0,7.83,11111222 
TCOON,ioos:station:TCOON:171:1,2019-11-12T17:30:00Z,27.4847,-97.3181,1.0,7.99,11111222 